Location: Gleizolles
(44.4833°N, 6.7667°E)
Time: 16:21:47
(UTC+00:00)

Cosmos 1656 - Pass Details

Date: 09 April 2020
Orbit: 798 x 849 km, 71.1° (Epoch: 04 June)

Event Time Altitude Azimuth Distance (km) Brightness Sun altitude
Rises 21:25:19 0° 329° (NNW) 3,416 8.0 -30.0°
Reaches altitude 10° 21:27:53 10° 323° (NW) 2,472 7.0 -30.3°
Enters shadow 21:32:58 43° 260° (W) 1,167 4.5 -30.8°
